Погода в Серове

Погода в Серове : погода сейчас, прогноз погоды и архив. Всё, что Вы хотите узнать о погоде в Серове!

Поиск расширенной информации на нашем сайте:

Полезная информация:

Другие новости

Новости СМИ2

Главная страница сайта

Новости сайта

03.07.2017

Напоминаем, что на нашем специализированном сайте Метеоцентр.Азия вы можете получить высокодетализированные автоматические прогнозы погоды по пунктам России, СНГ и мира в авиационном формате (включающие направление и скорость ветра, видимость, явления погоды, количество и форму облачности, нижнюю и верхнюю границу облачности).

Рекомендуем:

Погода в Серове - сегодня

Время (UTC), дата Ветер
(°,м/с) 
Видим.   Явления Облачность Т
(°С)
Тd
(°С)
f(%) Тe
(°С)
Pmin
(гПа)
dP
(гПа)
Po
(мм)
O2
(г/м3)
Тmin Tmax R s Состояние
почвы
21 18.05.19 290 (З) 10 км    10/10 600 м 
[Sc]
+1.7 -2.3 75 +1  1000.1  -0.4  739  296           
00 19.05.19 280 (З) 20000 м    8/6 600 м верхняя 
[Sc|Ci fib]
+1.2 -2.6 76 +2  1000.1  739  297           
03 19.05.19 020 (С) 20000 м    9/3 600 м верхняя 
[Sc|Ci fib]
+5.1 -3.1 55 +5  1000.1  0.2  739  293  +0.4        влажная 
06 19.05.19 050 (СВ) 20000 м    9/9 600 м 
[Cu Sc]
+7.1 -3.5 47 +7  1000.2  0.2  739  291           
09 19.05.19 330 (СЗ) 20000 м    9/9 600 м 
[Cu Sc]
+8.7 -5.8 35 +9  1001.2  740  289           
12 19.05.19 340 (С) 20000 м    9/9 600 м 
[Cu Sc]
+9.3 -6.1 33 +9  1002.1  0.9  740  289           
15 19.05.19 310 (СЗ) 20000 м    9/9 600 м 
[Sc]
+8.5 -5.1 38 +10  1002.7  0.5  741  290    +10.6       
18 19.05.19 280 (З) 10 км    8/8 600 м 
[Sc]
+5.3 -3.9 51 +5  1003.2  0.3  741  293           
21 19.05.19 330 (СЗ) 10 км    9/9 600 м 
[Sc]
+4.1 -1.3 68 +3  1003.4  0.2  741  294           
00 20.05.19 330 (СЗ) 20000 м  слаб. дождь  10/10 300 м 
[Frnb]
+2.8 +1 88 +1  1004.3  0.8  742  296           
03 20.05.19 340 (С) 20000 м  {дождь}  8/8 300 м кучево-дожд. 
[Cb calv]
+4.7 -0 72 +4  1004.6  0.4  742  294  +2.6      влажная 
06 20.05.19 350 (С) 20000 м  {дождь}  10/8 300 м кучево-дожд., верхняя 
[Cb calv|Ci fib]
+6.6 -3.4 49 +5  1004.3  -0.2  742  292           
09 20.05.19 310 (СЗ) 3{11}  20000 м  в посл. час дождь  10/10 300 м 
[Frnb]
+4.5 +2.1 84 +3  1005.8  1.4  743  294           
12 20.05.19 360 (С) 20000 м  слаб. дождь  10/10 300 м 
[Frnb]
+6.1 +1.6 73 +5  1006.5  0.7  743  293           
15 20.05.19 320 (СЗ) 20000 м  слаб. дождь  10/10 300 м 
[Frnb]
+5.6 +2.3 79 +5  1007  0.4  744  293    +8     
18 20.05.19 290 (З) 2000 м  слаб. дождь  10/10 300 м 
[Frnb]
+2.8 +1 88 +2  1007.7  0.6  744  297           
21 20.05.19 340 (С) 2000 м  слаб. дождь  10/10 300 м 
[Frnb]
+2.1 -0.1 85 +1  1007.6  0.1  744  298           
00 21.05.19 320 (СЗ) 20000 м  слаб. дождь  10/10 300 м 
[Frnb]
+1.1 -0.5 89 1007.8  0.1  744  299           
03 21.05.19 330 (СЗ) 20000 м  слаб. снег{дождь}  10/10 300 м 
[Frnb|Ns]
+1.3 -0.5 88 +1  1008.6  0.8  745  299  +1.1      влажная 
06 21.05.19 330 (СЗ) 20000 м  {снег, дождь}  10/10 600 м 
[Sc]
+3 -0.2 79 +2  1010  1.5  746  297           
09 21.05.19 330 (СЗ) 20000 м    10/10 600 м 
[Sc]
+4.1 -0.7 71 +4  1011.5  1.5  747  297           
12 21.05.19 330 (СЗ) 20000 м    10/10 600 м 
[Sc]
+5.7 -1.2 61 +5  1012.3  0.9  748  295           
15 21.05.19 290 (З) 20000 м    10/10 600 м 
[Sc]
+5.1 -0.1 69 +5  1012.6  0.3  748  296    +6.1  0.0     
18 21.05.19 270 (З) 10 км    10/10 600 м 
[Sc]
+3.9 -0.4 73 +3  1012.2  -0.4  748  297           
21 21.05.19 280 (З) 10 км    8/8 600 м 
[Sc]
+2.7 -1 77 +2  1012.1  -0.2  748  298           
Время (UTC), дата Ветер
(°,м/с) 
Видим.   Явления Облачность Т
(°С)
Тd
(°С)
f(%) Тe
(°С)
Pmin
(гПа)
dP
(гПа)
Po
(мм)
O2
(г/м3)
Тmin Tmax R s Состояние
почвы

Для получения пояснительной информации подведите курсор к названию столбца.

ПОГОДА в Серове - архив

Всё, что Вы хотите узнать о погоде в Серове - удобно и подробно!

Выберите нужную дату (начиная с 1 января 2018* года) и нажмите кнопку "Найти".
Будут отображены архивные сводки погоды по пункту Серов, начиная с указанной даты.


Отображать данные в формате CSV (для использования в таблицах Excel)


Внимание! Наш архив погоды предназначен исключительно для личного некоммерческого использования в познавательных целях. Если Вам необходимы официальные справки о состоянии погоды (для производственных, юридических, коммерческих и т.п. целей), обращайтесь в органы Росгидромета.

*Примечание: данная дата относится к архиву по метеостанциям СССР (Россия, СНГ, Балтия).
Архив по метеостанциям Зарубежной Европы и Азии (кроме Китая) хранится 10 дней, по другим регионам земного шара (Китай, Африка, Америка, Австралия, Океания) - 1 день.

Серов - район местоположения метеостанции


Название, широта, долгота, высота метеостанции:
Серов 59.6°ш. 60.5°д. 130 м над ур. моря [Российская Федерация]

Дополнительная информация

В oтличие oт бoльшинства пoгoдных сайтoв мы публикуем пoдрoбную метеoинфoрмацию в детальнoм прoфессиoнальнoм фoрмате.

Характеристики температуры и влажнoсти вoздуха измеряются на высoте 2 м в тени вдали oт зданий и деревьев.
Скoрoсть ветра измеряется на высoте 10 м (на урoвне рoста челoвека скoрoсть ветра ниже в 1.5-2 раза). Если метеoстанция нахoдится в гoрoде или в лесу, тo скoрoсть ветра занижена на 2-4 м/с пo сравнению с oткрытым местoм. Скoрoсть ветра над акватoриями крупных рек и oзёр, а также на вершинах хoлмoв на 2-5 м/с выше, чем в oбычных услoвиях.
Атмoсфернoе давление в разных тoчках местнoсти мoжет значительнo oтличаться oт давления на метеoстанции, в зависимoсти oт услoвий рельефа (при пoдъёме на 10 м давление пoнижается примернo на 1 мм рт.ст.).